User: anonymous   Login
Location: Pedholt
(56.0260°N, 10.2097°E)
Time: 13:07:34
(UTC+00:00)
Language:

A-11 Canister half - Orbit

View from above orbital plane
View from above orbital plane
View from above satellite
View from above satellite

Ground track
Ground track

The orbit data is extracted from the following two-line orbital elements,

1 00053U 60009E   21213.90958773 -.00000047  00000-0  36473-3 0  9998
2 00053  47.2779  73.1984 0097149 213.9930 145.4608 12.17256665718561
Epoch (UTC): 01 August 2021 21:49:48
Eccentricity: 0.0097149
inclination: 47.2779°
perigee height: 1527 km
apogee height: 1682 km
right ascension of ascending node: 73.1984°
argument of perigee: 213.9930°
revolutions per day: 12.17256665
mean anomaly at epoch: 145.4608°
orbit number at epoch: 71856

The dashed part of the orbit path shows where the satellite is in the earth's shadow,  

DLR